THY5HB LTFM-LTCJ

Flight info

Callsign THY5HB
Flight time 1h 41m
Altitude 37000
Route VICE1D VICEN UT57 VEVUD UT341 BAG UL614 EZS UW104 ZUITA
Aircraft A320/M-SDE1FGHILORVWXY/LB1

Departure

Time 2026-04-25 23:46
Airport İstanbul Airport (LTFM)

Arrival

Time 2026-04-26 01:27
Airport Batman Airport (LTCJ)
Time Latitude Longitude Altitude Speed Heading
2026-04-25 23:21 41.26163 28.73620 330 ft 0 kts 107°
2026-04-25 23:37 41.26167 28.73600 330 ft 3 kts 107°
2026-04-25 23:37 41.26171 28.73585 329 ft 3 kts 107°
2026-04-25 23:37 41.26176 28.73563 331 ft 2 kts 95°
2026-04-25 23:38 41.26177 28.73549 334 ft 0 kts 128°
2026-04-25 23:38 41.26179 28.73546 334 ft 2 kts 114°
2026-04-25 23:38 41.26182 28.73529 329 ft 0 kts 99°
2026-04-25 23:38 41.26182 28.73511 330 ft 2 kts 49°
2026-04-25 23:39 41.26174 28.73501 332 ft 0 kts
2026-04-25 23:41 41.26175 28.73501 332 ft 0 kts
2026-04-25 23:41 41.26184 28.73502 331 ft 2 kts
2026-04-25 23:41 41.26205 28.73491 332 ft 4 kts 327°
2026-04-25 23:42 41.26218 28.73450 332 ft 6 kts 276°
2026-04-25 23:42 41.26217 28.73385 333 ft 8 kts 268°
2026-04-25 23:42 41.26216 28.73300 334 ft 10 kts 267°
2026-04-25 23:42 41.26215 28.73194 334 ft 13 kts 269°
2026-04-25 23:43 41.26211 28.73066 334 ft 15 kts 268°
2026-04-25 23:43 41.26210 28.72916 333 ft 17 kts 270°
2026-04-25 23:43 41.26210 28.72745 334 ft 20 kts 269°
2026-04-25 23:43 41.26210 28.72571 334 ft 11 kts 273°
2026-04-25 23:44 41.26250 28.72519 333 ft 10 kts 358°
2026-04-25 23:44 41.26258 28.72519 334 ft 0 kts
2026-04-25 23:44 41.26262 28.72519 334 ft 2 kts
2026-04-25 23:44 41.26279 28.72519 332 ft 4 kts
2026-04-25 23:45 41.26323 28.72519 332 ft 19 kts 359°
2026-04-25 23:45 41.26768 28.72503 332 ft 107 kts 359°
2026-04-25 23:45 41.27745 28.72472 331 ft 171 kts 359°
2026-04-25 23:45 41.29086 28.72448 624 ft 202 kts
2026-04-25 23:46 41.30430 28.72562 1736 ft 195 kts
2026-04-25 23:46 41.31878 28.72754 2267 ft 220 kts
2026-04-25 23:46 41.33485 28.72786 2575 ft 243 kts 359°
2026-04-25 23:46 41.35238 28.72728 3217 ft 257 kts 358°
2026-04-25 23:47 41.36989 28.72267 4073 ft 262 kts 332°
2026-04-25 23:47 41.38290 28.70586 4906 ft 268 kts 298°
2026-04-25 23:47 41.38760 28.68140 5785 ft 273 kts 274°
2026-04-25 23:47 41.38731 28.65636 6670 ft 275 kts 265°
2026-04-25 23:48 41.38540 28.63068 7528 ft 277 kts 264°
2026-04-25 23:48 41.38329 28.60507 8385 ft 279 kts 262°
2026-04-25 23:48 41.37698 28.58074 9205 ft 282 kts 238°
2026-04-25 23:48 41.36351 28.56176 10017 ft 286 kts 215°
2026-04-25 23:49 41.34507 28.55170 10701 ft 294 kts 190°
2026-04-25 23:49 41.32384 28.55065 10912 ft 318 kts 180°
2026-04-25 23:49 41.30095 28.55116 11067 ft 341 kts 180°
2026-04-25 23:49 41.27659 28.55414 11246 ft 360 kts 169°
2026-04-25 23:50 41.25235 28.56418 11745 ft 369 kts 157°
2026-04-25 23:50 41.22974 28.58091 12355 ft 375 kts 145°
2026-04-25 23:50 41.20988 28.60354 12982 ft 379 kts 136°
2026-04-25 23:50 41.19085 28.62795 13628 ft 381 kts 136°
2026-04-25 23:51 41.17163 28.65248 14198 ft 384 kts 136°
2026-04-25 23:51 41.15229 28.67711 14728 ft 387 kts 136°
2026-04-25 23:51 41.13288 28.70224 15252 ft 390 kts 133°
2026-04-25 23:51 41.11616 28.73076 15767 ft 393 kts 123°
2026-04-25 23:52 41.10131 28.76135 16295 ft 396 kts 122°
2026-04-25 23:52 41.08607 28.79258 16833 ft 399 kts 123°
2026-04-25 23:52 41.07090 28.82347 17374 ft 402 kts 123°
2026-04-25 23:52 41.05552 28.85460 17907 ft 405 kts 123°
2026-04-25 23:53 41.04004 28.88587 18426 ft 408 kts 123°
2026-04-25 23:53 41.02422 28.91718 18904 ft 411 kts 126°
2026-04-25 23:53 41.00540 28.94581 19364 ft 414 kts 135°
2026-04-25 23:53 40.98478 28.97263 19859 ft 416 kts 135°
2026-04-25 23:54 40.96407 28.99954 20321 ft 419 kts 135°
2026-04-25 23:54 40.94321 29.02667 20782 ft 422 kts 135°
2026-04-25 23:54 40.92222 29.05392 21217 ft 424 kts 135°
2026-04-25 23:54 40.90108 29.08133 21640 ft 427 kts 135°
2026-04-25 23:55 40.87982 29.10891 22053 ft 430 kts 135°
2026-04-25 23:55 40.86024 29.13880 22447 ft 432 kts 125°
2026-04-25 23:55 40.84462 29.17284 22838 ft 434 kts 115°
2026-04-25 23:55 40.83345 29.20992 23228 ft 436 kts 106°
2026-04-25 23:56 40.82564 29.24851 23607 ft 438 kts 104°
2026-04-25 23:56 40.81791 29.28754 23951 ft 439 kts 104°
2026-04-25 23:56 40.81015 29.32666 24294 ft 441 kts 104°
2026-04-25 23:56 40.80237 29.36589 24627 ft 443 kts 104°
2026-04-25 23:57 40.79453 29.40540 24962 ft 445 kts 104°
2026-04-25 23:57 40.78664 29.44492 25297 ft 447 kts 104°
2026-04-25 23:57 40.77868 29.48455 25630 ft 449 kts 104°
2026-04-25 23:57 40.77065 29.52447 25962 ft 451 kts 104°
2026-04-25 23:58 40.76259 29.56449 26291 ft 453 kts 104°
2026-04-25 23:58 40.75451 29.60477 26634 ft 454 kts 104°
2026-04-25 23:58 40.74645 29.64492 27089 ft 453 kts 104°
2026-04-25 23:58 40.73860 29.68501 27558 ft 451 kts 101°
2026-04-25 23:59 40.73420 29.72581 28019 ft 448 kts 92°
2026-04-25 23:59 40.73340 29.76685 28483 ft 447 kts 90°
2026-04-25 23:59 40.73277 29.80776 28957 ft 446 kts 90°
2026-04-25 23:59 40.73205 29.84858 29432 ft 445 kts 90°
2026-04-26 00:00 40.73124 29.88923 29882 ft 444 kts 90°
2026-04-26 00:00 40.73041 29.93004 30310 ft 443 kts 90°
2026-04-26 00:00 40.72955 29.97062 30723 ft 442 kts 90°
2026-04-26 00:00 40.72875 30.01108 31136 ft 441 kts 90°
2026-04-26 00:01 40.72706 30.05142 31550 ft 441 kts 96°
2026-04-26 00:01 40.72103 30.09094 31955 ft 441 kts 105°
2026-04-26 00:01 40.71121 30.12931 32361 ft 441 kts 108°
2026-04-26 00:01 40.70106 30.16740 32736 ft 440 kts 108°
2026-04-26 00:02 40.69092 30.20549 33153 ft 440 kts 108°
2026-04-26 00:02 40.68082 30.24351 33575 ft 439 kts 108°
2026-04-26 00:02 40.67020 30.28107 33998 ft 438 kts 113°
2026-04-26 00:02 40.65580 30.31648 34335 ft 439 kts 122°
2026-04-26 00:03 40.63776 30.34889 34641 ft 439 kts 126°
2026-04-26 00:03 40.61900 30.38077 34955 ft 439 kts 127°
2026-04-26 00:03 40.60026 30.41250 35255 ft 439 kts 127°
2026-04-26 00:03 40.58151 30.44420 35537 ft 439 kts 127°
2026-04-26 00:04 40.56283 30.47587 35825 ft 439 kts 127°
2026-04-26 00:04 40.54550 30.50888 36095 ft 438 kts 118°
2026-04-26 00:04 40.53237 30.54496 36354 ft 437 kts 109°
2026-04-26 00:04 40.52380 30.58311 36606 ft 436 kts 102°
2026-04-26 00:05 40.51705 30.62195 36850 ft 436 kts 102°
2026-04-26 00:05 40.51015 30.66078 37011 ft 437 kts 102°
2026-04-26 00:05 40.50313 30.69984 37041 ft 442 kts 102°
2026-04-26 00:06 40.48789 30.77891 37044 ft 449 kts 105°
2026-04-26 00:06 40.46923 30.85725 37043 ft 450 kts 107°
2026-04-26 00:07 40.44965 30.93525 37044 ft 450 kts 107°
2026-04-26 00:07 40.43058 31.01350 37050 ft 450 kts 107°
2026-04-26 00:08 40.41196 31.09207 37061 ft 451 kts 106°
2026-04-26 00:08 40.39326 31.17064 37064 ft 451 kts 107°
2026-04-26 00:09 40.37631 31.24979 37071 ft 451 kts 102°
2026-04-26 00:09 40.36329 31.33021 37068 ft 451 kts 102°
2026-04-26 00:10 40.35020 31.41081 37069 ft 452 kts 102°
2026-04-26 00:10 40.33929 31.47779 37073 ft 452 kts 102°
2026-04-26 00:11 40.32610 31.55838 37074 ft 452 kts 102°
2026-04-26 00:11 40.31277 31.63905 37072 ft 453 kts 102°
2026-04-26 00:12 40.29944 31.71976 37071 ft 453 kts 102°
2026-04-26 00:12 40.28601 31.80045 37075 ft 454 kts 102°
2026-04-26 00:13 40.27254 31.88119 37070 ft 454 kts 102°
2026-04-26 00:13 40.25812 31.96167 37073 ft 454 kts 105°
2026-04-26 00:14 40.24077 32.04113 37078 ft 454 kts 107°
2026-04-26 00:14 40.22260 32.12022 37077 ft 454 kts 107°
2026-04-26 00:15 40.20490 32.19957 37078 ft 455 kts 107°
2026-04-26 00:15 40.18762 32.27924 37079 ft 456 kts 107°
2026-04-26 00:16 40.17024 32.35896 37081 ft 456 kts 107°
2026-04-26 00:16 40.15265 32.43877 37079 ft 457 kts 107°
2026-04-26 00:17 40.13495 32.51858 37092 ft 457 kts 107°
2026-04-26 00:17 40.11730 32.59830 37095 ft 457 kts 107°
2026-04-26 00:18 40.09951 32.67815 37092 ft 458 kts 108°
2026-04-26 00:18 40.08171 32.75793 37088 ft 458 kts 108°
2026-04-26 00:19 40.06299 32.83801 37084 ft 458 kts 110°
2026-04-26 00:19 40.04063 32.91572 37083 ft 457 kts 113°
2026-04-26 00:20 40.01670 32.99271 37075 ft 457 kts 114°
2026-04-26 00:20 39.99320 33.06986 37076 ft 458 kts 113°
2026-04-26 00:21 39.97035 33.14735 37076 ft 458 kts 112°
2026-04-26 00:21 39.94763 33.22499 37074 ft 458 kts 112°
2026-04-26 00:22 39.92470 33.30234 37077 ft 458 kts 113°
2026-04-26 00:22 39.90154 33.37973 37079 ft 458 kts 113°
2026-04-26 00:23 39.87822 33.45748 37076 ft 458 kts 113°
2026-04-26 00:23 39.85503 33.53464 37079 ft 458 kts 113°
2026-04-26 00:24 39.83221 33.61198 37073 ft 458 kts 109°
2026-04-26 00:24 39.81570 33.69218 37072 ft 459 kts 106°
2026-04-26 00:25 39.79960 33.77195 37074 ft 459 kts 107°
2026-04-26 00:25 39.78325 33.85217 37080 ft 459 kts 107°
2026-04-26 00:26 39.76363 33.93126 37074 ft 456 kts 112°
2026-04-26 00:26 39.74165 34.00874 37076 ft 456 kts 112°
2026-04-26 00:27 39.71979 34.08612 37083 ft 456 kts 112°
2026-04-26 00:27 39.69786 34.16339 37079 ft 456 kts 112°
2026-04-26 00:28 39.67578 34.24057 37074 ft 456 kts 112°
2026-04-26 00:28 39.65367 34.31757 37065 ft 455 kts 112°
2026-04-26 00:29 39.63156 34.39463 37073 ft 456 kts 112°
2026-04-26 00:29 39.60946 34.47162 37067 ft 456 kts 112°
2026-04-26 00:30 39.58721 34.54853 37068 ft 456 kts 113°
2026-04-26 00:30 39.56486 34.62554 37062 ft 456 kts 113°
2026-04-26 00:31 39.54265 34.70244 37068 ft 456 kts 113°
2026-04-26 00:31 39.52034 34.77931 37068 ft 456 kts 113°
2026-04-26 00:32 39.49781 34.85613 37068 ft 456 kts 113°
2026-04-26 00:32 39.46408 34.97120 37075 ft 456 kts 113°
2026-04-26 00:33 39.44137 35.04844 37078 ft 456 kts 113°
2026-04-26 00:33 39.41876 35.12508 37080 ft 456 kts 114°
2026-04-26 00:34 39.39607 35.20172 37065 ft 457 kts 113°
2026-04-26 00:34 39.37372 35.27857 37077 ft 457 kts 113°
2026-04-26 00:35 39.35160 35.35559 37070 ft 457 kts 113°
2026-04-26 00:35 39.32934 35.43262 37063 ft 458 kts 113°
2026-04-26 00:36 39.30688 35.50962 37066 ft 458 kts 114°
2026-04-26 00:36 39.28426 35.58665 37061 ft 459 kts 114°
2026-04-26 00:37 39.26159 35.66366 37074 ft 459 kts 114°
2026-04-26 00:37 39.23890 35.74073 37069 ft 460 kts 114°
2026-04-26 00:38 39.21621 35.81795 37077 ft 461 kts 114°
2026-04-26 00:38 39.19340 35.89519 37076 ft 461 kts 114°
2026-04-26 00:39 39.17046 35.97246 37064 ft 462 kts 114°
2026-04-26 00:39 39.15314 36.03773 37073 ft 465 kts 105°
2026-04-26 00:40 39.14075 36.13407 37076 ft 467 kts 102°
2026-04-26 00:40 39.13020 36.21669 37069 ft 467 kts 102°
2026-04-26 00:41 39.11952 36.29933 37076 ft 468 kts 102°
2026-04-26 00:41 39.10889 36.38202 37078 ft 468 kts 102°
2026-04-26 00:42 39.09822 36.46475 37080 ft 468 kts 102°
2026-04-26 00:42 39.08933 36.53340 37080 ft 468 kts 102°
2026-04-26 00:43 39.07678 36.63002 37068 ft 469 kts 102°
2026-04-26 00:43 39.06771 36.69935 37069 ft 469 kts 102°
2026-04-26 00:44 39.05684 36.78153 37071 ft 469 kts 102°
2026-04-26 00:44 39.04580 36.86483 37075 ft 469 kts 102°
2026-04-26 00:45 39.03477 36.94763 37067 ft 470 kts 102°
2026-04-26 00:45 39.02363 37.03052 37067 ft 470 kts 102°
2026-04-26 00:46 39.01245 37.11350 37073 ft 471 kts 102°
2026-04-26 00:46 39.00123 37.19651 37076 ft 471 kts 102°
2026-04-26 00:47 38.98989 37.27953 37072 ft 471 kts 102°
2026-04-26 00:47 38.97852 37.36254 37075 ft 472 kts 103°
2026-04-26 00:48 38.96705 37.44559 37079 ft 472 kts 103°
2026-04-26 00:48 38.95558 37.52868 37070 ft 473 kts 103°
2026-04-26 00:49 38.94403 37.61189 37073 ft 473 kts 103°
2026-04-26 00:49 38.93235 37.69506 37081 ft 473 kts 103°
2026-04-26 00:50 38.92059 37.77826 37085 ft 473 kts 103°
2026-04-26 00:50 38.90874 37.86139 37080 ft 474 kts 103°
2026-04-26 00:51 38.89689 37.94460 37084 ft 474 kts 103°
2026-04-26 00:51 38.88506 38.02781 37088 ft 474 kts 103°
2026-04-26 00:52 38.87310 38.11106 37090 ft 474 kts 103°
2026-04-26 00:52 38.86108 38.19422 37081 ft 474 kts 104°
2026-04-26 00:53 38.84897 38.27736 37086 ft 474 kts 104°
2026-04-26 00:53 38.83682 38.36055 37089 ft 474 kts 104°
2026-04-26 00:54 38.82462 38.44379 37097 ft 475 kts 104°
2026-04-26 00:54 38.81228 38.52692 37085 ft 475 kts 104°
2026-04-26 00:55 38.79988 38.61020 37085 ft 475 kts 104°
2026-04-26 00:55 38.78746 38.69343 37089 ft 476 kts 104°
2026-04-26 00:56 38.77498 38.77672 37090 ft 476 kts 104°
2026-04-26 00:56 38.76248 38.86002 37078 ft 476 kts 104°
2026-04-26 00:57 38.74992 38.94325 37078 ft 477 kts 104°
2026-04-26 00:57 38.73760 39.02684 37079 ft 477 kts 104°
2026-04-26 00:58 38.72533 39.11015 37073 ft 470 kts 104°
2026-04-26 00:58 38.71912 39.15061 37081 ft 455 kts 108°
2026-04-26 00:58 38.70972 39.18821 37083 ft 436 kts 118°
2026-04-26 00:59 38.69651 39.22251 37080 ft 424 kts 127°
2026-04-26 00:59 38.67997 39.25335 37080 ft 417 kts 135°
2026-04-26 00:59 38.63962 39.30530 37085 ft 414 kts 143°
2026-04-26 01:00 38.59657 39.35611 37086 ft 427 kts 143°
2026-04-26 01:00 38.55235 39.40842 37082 ft 432 kts 143°
2026-04-26 01:01 38.50832 39.46069 37078 ft 432 kts 142°
2026-04-26 01:01 38.48620 39.48709 36465 ft 440 kts 142°
2026-04-26 01:01 38.46347 39.51416 35339 ft 453 kts 142°
2026-04-26 01:02 38.44058 39.54153 35022 ft 446 kts 142°
2026-04-26 01:02 38.41831 39.56826 34922 ft 434 kts 142°
2026-04-26 01:02 38.39666 39.59425 34828 ft 422 kts 142°
2026-04-26 01:02 38.37534 39.61971 34398 ft 420 kts 142°
2026-04-26 01:03 38.35394 39.64512 33803 ft 421 kts 142°
2026-04-26 01:03 38.33247 39.67055 33221 ft 420 kts 143°
2026-04-26 01:03 38.31834 39.68725 32863 ft 419 kts 143°
2026-04-26 01:03 38.28980 39.72091 32121 ft 417 kts 143°
2026-04-26 01:04 38.26860 39.74592 31583 ft 416 kts 143°
2026-04-26 01:04 38.24742 39.77088 31031 ft 415 kts 143°
2026-04-26 01:04 38.22620 39.79577 30482 ft 414 kts 143°
2026-04-26 01:04 38.20512 39.82055 29891 ft 413 kts 143°
2026-04-26 01:05 38.18415 39.84524 29344 ft 409 kts 143°
2026-04-26 01:05 38.16335 39.86979 28804 ft 406 kts 143°
2026-04-26 01:05 38.14273 39.89415 28267 ft 403 kts 143°
2026-04-26 01:05 38.12223 39.91829 27738 ft 400 kts 143°
2026-04-26 01:06 38.10185 39.94220 27212 ft 398 kts 143°
2026-04-26 01:06 38.08154 39.96597 26688 ft 396 kts 143°
2026-04-26 01:06 38.06125 39.98969 26162 ft 395 kts 143°
2026-04-26 01:06 38.04110 40.01323 25640 ft 394 kts 143°
2026-04-26 01:07 38.02094 40.03674 25131 ft 393 kts 142°
2026-04-26 01:07 38.00085 40.06019 24612 ft 392 kts 142°
2026-04-26 01:07 37.98076 40.08358 24096 ft 393 kts 142°
2026-04-26 01:07 37.96063 40.10706 23540 ft 393 kts 142°
2026-04-26 01:08 37.94054 40.13051 22984 ft 392 kts 141°
2026-04-26 01:08 37.92071 40.15409 22472 ft 391 kts 137°
2026-04-26 01:08 37.90350 40.18133 21952 ft 393 kts 127°
2026-04-26 01:08 37.89076 40.21207 21474 ft 395 kts 115°
2026-04-26 01:09 37.88296 40.24504 21323 ft 387 kts 104°
2026-04-26 01:09 37.88003 40.27823 21349 ft 373 kts 94°
2026-04-26 01:09 37.88137 40.31044 21357 ft 360 kts 87°
2026-04-26 01:09 37.88367 40.34135 21363 ft 346 kts 88°
2026-04-26 01:10 37.88586 40.37136 21063 ft 343 kts 88°
2026-04-26 01:10 37.88800 40.40166 20144 ft 356 kts 87°
2026-04-26 01:10 37.89025 40.43367 19206 ft 364 kts 87°
2026-04-26 01:10 37.89253 40.46581 18285 ft 370 kts 87°
2026-04-26 01:11 37.89486 40.49848 17242 ft 375 kts 87°
2026-04-26 01:11 37.89723 40.53145 16433 ft 373 kts 86°
2026-04-26 01:11 37.89957 40.56343 16171 ft 356 kts 86°
2026-04-26 01:11 37.90182 40.59382 15992 ft 339 kts 87°
2026-04-26 01:12 37.90391 40.62281 15825 ft 323 kts 87°
2026-04-26 01:12 37.90588 40.65073 15409 ft 318 kts 87°
2026-04-26 01:12 37.90775 40.67794 15011 ft 313 kts 87°
2026-04-26 01:12 37.90963 40.70530 14538 ft 311 kts 87°
2026-04-26 01:13 37.91155 40.73278 14107 ft 308 kts 86°
2026-04-26 01:13 37.91342 40.75928 13669 ft 305 kts 86°
2026-04-26 01:13 37.91528 40.78591 13194 ft 302 kts 87°
2026-04-26 01:13 37.91712 40.81223 12727 ft 299 kts 87°
2026-04-26 01:14 37.91895 40.83831 12267 ft 296 kts 87°
2026-04-26 01:14 37.92077 40.86419 11813 ft 294 kts 87°
2026-04-26 01:14 37.92259 40.89035 11356 ft 296 kts 88°
2026-04-26 01:14 37.92435 40.91635 10909 ft 294 kts 88°
2026-04-26 01:15 37.92607 40.94207 10477 ft 293 kts 88°
2026-04-26 01:15 37.92776 40.96795 10053 ft 297 kts 88°
2026-04-26 01:15 37.92889 40.98517 9742 ft 294 kts 88°
2026-04-26 01:15 37.93122 41.01919 9118 ft 287 kts 88°
2026-04-26 01:16 37.93175 41.04399 8652 ft 275 kts 104°
2026-04-26 01:16 37.92500 41.06577 8205 ft 261 kts 130°
2026-04-26 01:16 37.91694 41.07673 7811 ft 257 kts 146°
2026-04-26 01:16 37.90110 41.08612 7288 ft 250 kts 171°
2026-04-26 01:17 37.88410 41.08620 6873 ft 243 kts 193°
2026-04-26 01:17 37.86857 41.07862 6486 ft 237 kts 204°
2026-04-26 01:17 37.85358 41.06979 6101 ft 233 kts 204°
2026-04-26 01:17 37.83930 41.06139 6002 ft 223 kts 204°
2026-04-26 01:18 37.82548 41.05327 6003 ft 209 kts 204°
2026-04-26 01:18 37.81239 41.04558 6008 ft 207 kts 204°
2026-04-26 01:18 37.80002 41.03641 6010 ft 207 kts 209°
2026-04-26 01:18 37.78661 41.03107 6006 ft 204 kts 179°
2026-04-26 01:19 37.77241 41.03266 6013 ft 206 kts 171°
2026-04-26 01:19 37.75847 41.03698 6010 ft 206 kts 160°
2026-04-26 01:19 37.74537 41.04425 6009 ft 206 kts 155°
2026-04-26 01:19 37.73240 41.05197 6009 ft 206 kts 156°
2026-04-26 01:20 37.71931 41.05929 6006 ft 206 kts 157°
2026-04-26 01:20 37.70619 41.06655 6009 ft 206 kts 157°
2026-04-26 01:20 37.69308 41.07374 6010 ft 205 kts 158°
2026-04-26 01:20 37.67994 41.08083 6003 ft 205 kts 160°
2026-04-26 01:21 37.66605 41.08343 6001 ft 205 kts 189°
2026-04-26 01:21 37.65347 41.07515 6005 ft 210 kts 224°
2026-04-26 01:21 37.64689 41.05830 6007 ft 219 kts 260°
2026-04-26 01:21 37.64919 41.03919 6008 ft 227 kts 295°
2026-04-26 01:22 37.65977 41.02432 6007 ft 235 kts 329°
2026-04-26 01:22 37.67572 41.01856 6009 ft 244 kts
2026-04-26 01:22 37.69218 41.02311 6011 ft 244 kts 22°
2026-04-26 01:22 37.70860 41.02899 6007 ft 247 kts
2026-04-26 01:23 37.72579 41.02973 6009 ft 248 kts 358°
2026-04-26 01:23 37.74305 41.02840 5812 ft 247 kts 356°
2026-04-26 01:23 37.76011 41.02672 5574 ft 244 kts 356°
2026-04-26 01:23 37.77692 41.02539 5343 ft 239 kts 355°
2026-04-26 01:24 37.79341 41.02531 5025 ft 238 kts 17°
2026-04-26 01:24 37.80679 41.03639 4684 ft 231 kts 53°
2026-04-26 01:24 37.81776 41.05139 4326 ft 234 kts 36°
2026-04-26 01:24 37.83264 41.05939 3952 ft 233 kts 22°
2026-04-26 01:25 37.84741 41.06719 3501 ft 227 kts 26°
2026-04-26 01:25 37.86154 41.07567 3068 ft 221 kts 27°
2026-04-26 01:25 37.87509 41.08392 2746 ft 211 kts 26°
2026-04-26 01:25 37.88786 41.09166 2489 ft 196 kts 26°
2026-04-26 01:26 37.89970 41.09883 2220 ft 181 kts 25°
2026-04-26 01:26 37.91050 41.10538 2001 ft 162 kts 25°
2026-04-26 01:26 37.92039 41.11138 1827 ft 153 kts 25°
2026-04-26 01:26 37.92786 41.11590 1826 ft 76 kts 25°
2026-04-26 01:27 37.93130 41.11793 1829 ft 50 kts 25°
2026-04-26 01:27 37.93437 41.11978 1835 ft 48 kts 25°
2026-04-26 01:27 37.93736 41.12160 1836 ft 48 kts 26°
2026-04-26 01:27 37.93980 41.12298 1838 ft 29 kts 352°
2026-04-26 01:28 37.94038 41.12383 1839 ft 2 kts 82°
2026-04-26 01:28 37.94051 41.12388 1839 ft 2 kts 20°
2026-04-26 01:28 37.94066 41.12399 1839 ft 3 kts 38°
2026-04-26 01:28 37.94082 41.12415 1840 ft 4 kts 39°
2026-04-26 01:29 37.94101 41.12440 1840 ft 4 kts 52°
2026-04-26 01:29 37.94096 41.12453 1840 ft 2 kts 167°
2026-04-26 01:29 37.94085 41.12471 1840 ft 4 kts 117°
2026-04-26 01:29 37.94071 41.12519 1839 ft 7 kts 109°
2026-04-26 01:30 37.94052 41.12589 1839 ft 10 kts 109°
2026-04-26 01:30 37.93994 41.12613 1839 ft 11 kts 197°
2026-04-26 01:30 37.93917 41.12572 1838 ft 13 kts 205°
2026-04-26 01:30 37.93824 41.12519 1837 ft 16 kts 206°
2026-04-26 01:31 37.93714 41.12454 1836 ft 19 kts 205°
2026-04-26 01:31 37.93588 41.12379 1835 ft 20 kts 206°
2026-04-26 01:31 37.93467 41.12299 1834 ft 21 kts 203°
2026-04-26 01:31 37.93326 41.12222 1833 ft 20 kts 222°
2026-04-26 01:32 37.93205 41.12145 1832 ft 21 kts 205°
2026-04-26 01:32 37.93075 41.12063 1831 ft 22 kts 205°
2026-04-26 01:32 37.92984 41.11965 1830 ft 13 kts 291°
2026-04-26 01:32 37.93014 41.11855 1829 ft 15 kts 297°
2026-04-26 01:33 37.93095 41.11774 1829 ft 16 kts
2026-04-26 01:33 37.93201 41.11833 1830 ft 17 kts 27°
2026-04-26 01:33 37.93309 41.11900 1833 ft 17 kts 25°
2026-04-26 01:33 37.93420 41.11969 1835 ft 18 kts 26°
2026-04-26 01:34 37.93542 41.12042 1836 ft 20 kts 24°
2026-04-26 01:34 37.93676 41.12115 1836 ft 22 kts 24°
2026-04-26 01:34 37.93815 41.12203 1836 ft 21 kts 29°
2026-04-26 01:34 37.93945 41.12288 1838 ft 19 kts 30°
2026-04-26 01:35 37.94064 41.12358 1839 ft 18 kts 19°
2026-04-26 01:35 37.94169 41.12332 1840 ft 14 kts 343°
2026-04-26 01:35 37.94275 41.12299 1839 ft 17 kts 344°
2026-04-26 01:35 37.94393 41.12256 1839 ft 19 kts 343°
2026-04-26 01:36 37.94502 41.12206 1839 ft 14 kts 323°
2026-04-26 01:36 37.94556 41.12160 1839 ft 0 kts 343°